| time (UTC) | temp C | wind direction | speed KPH | gust KPH | rain 1hr cm | rain 24hr cm | rain mn cm | humidity % | barometer mb |
| 20260508091101 | 13 | 248 | 1.6 | 6.4 | 0.05 | 0.18 | 0.05 | 89 | 1014.6 |
| 20260508090056 | 14 | 255 | 3.2 | 6.4 | 0.03 | 0.15 | 0.03 | 89 | 1014.8 |
| 20260508085051 | 14 | 289 | 3.2 | 6.4 | 0.00 | 0.13 | 0.00 | 88 | 1014.7 |
| 20260508084046 | 14 | 277 | 3.2 | 3.2 | 0.00 | 0.13 | 0.00 | 87 | 1014.5 |
| 20260508083041 | 13 | 293 | 1.6 | 6.4 | 0.00 | 0.13 | 0.00 | 87 | 1014.3 |
| 20260508082036 | 14 | 270 | 1.6 | 6.4 | 0.00 | 0.13 | 0.00 | 87 | 1014.3 |
| 20260508081111 | 13 | 282 | 3.2 | 6.4 | 0.00 | 0.13 | 0.00 | 88 | 1014.3 |
| 20260508080026 | 13 | 255 | 3.2 | 6.4 | 0.00 | 0.13 | 0.00 | 88 | 1013.9 |
| 20260508075021 | 13 | 261 | 3.2 | 6.4 | 0.00 | 0.13 | 0.00 | 87 | 1013.7 |
| 20260508074115 | 13 | 261 | 4.8 | 9.7 | 0.00 | 0.13 | 0.00 | 87 | 1013.7 |
| 20260508073110 | 13 | 304 | 3.2 | 6.4 | 0.00 | 0.13 | 0.00 | 88 | 1013.7 |
| 20260508072126 | 13 | 315 | 3.2 | 9.7 | 0.00 | 0.13 | 0.00 | 88 | 1013.3 |
| 20260508071059 | 13 | 273 | 4.8 | 6.4 | 0.00 | 0.13 | 0.00 | 87 | 1013.4 |
| 20260508070054 | 13 | 281 | 4.8 | 6.4 | 0.00 | 0.13 | 0.00 | 87 | 1013.3 |
| 20260508065049 | 14 | 270 | 4.8 | 9.7 | 0.00 | 0.13 | 0.00 | 86 | 1013.3 |
| 20260508064044 | 13 | 295 | 3.2 | 6.4 | 0.00 | 0.13 | 0.00 | 87 | 1013.0 |
| 20260508063038 | 13 | 272 | 3.2 | 6.4 | 0.00 | 0.13 | 0.00 | 88 | 1013.0 |
| 20260508062032 | 13 | 261 | 3.2 | 6.4 | 0.00 | 0.13 | 0.00 | 90 | 1013.2 |
| 20260508061048 | 12 | 252 | 3.2 | 6.4 | 0.00 | 0.13 | 0.00 | 90 | 1013.0 |
| 20260508060022 | 12 | 262 | 3.2 | 6.4 | 0.00 | 0.13 | 0.00 | 91 | 1012.9 |
| 20260508055017 | 12 | 310 | 3.2 | 6.4 | 0.00 | 0.13 | 0.00 | 91 | 1012.5 |
| 20260508054132 | 12 | 282 | 3.2 | 6.4 | 0.00 | 0.13 | 0.00 | 91 | 1012.6 |
| 20260508053107 | 12 | 293 | 3.2 | 6.4 | 0.00 | 0.13 | 0.00 | 91 | 1012.4 |
| 20260508052122 | 12 | 312 | 1.6 | 3.2 | 0.00 | 0.13 | 0.00 | 92 | 1012.5 |
| 20260508051056 | 12 | 0.0 | 0.0 | 0.00 | 0.13 | 0.00 | 93 | 1012.6 | |
| 20260508050051 | 12 | 315 | 1.6 | 3.2 | 0.00 | 0.13 | 0.00 | 92 | 1012.3 |
| 20260508045046 | 12 | 310 | 1.6 | 6.4 | 0.00 | 0.13 | 0.00 | 92 | 1012.2 |
| 20260508044041 | 12 | 315 | 4.8 | 9.7 | 0.00 | 0.13 | 0.00 | 93 | 1012.3 |
| 20260508043036 | 12 | 270 | 1.6 | 6.4 | 0.00 | 0.13 | 0.00 | 93 | 1012.5 |
| 20260508042030 | 12 | 270 | 1.6 | 3.2 | 0.00 | 0.13 | 0.00 | 93 | 1012.4 |
| 20260508041025 | 12 | 270 | 3.2 | 6.4 | 0.00 | 0.13 | 0.00 | 93 | 1012.3 |
| 20260508040020 | 12 | 312 | 1.6 | 6.4 | 0.00 | 0.13 | 0.00 | 93 | 1012.3 |
| 20260508035115 | 12 | 276 | 1.6 | 6.4 | 0.00 | 0.13 | 0.00 | 93 | 1012.2 |
| 20260508034110 | 12 | 306 | 3.2 | 3.2 | 0.00 | 0.13 | 0.00 | 93 | 1011.9 |
| 20260508033105 | 12 | 293 | 1.6 | 3.2 | 0.00 | 0.13 | 0.00 | 94 | 1011.9 |
| 20260508032119 | 12 | 261 | 1.6 | 3.2 | 0.00 | 0.13 | 0.00 | 93 | 1012.2 |
| 20260508031134 | 12 | 263 | 1.6 | 3.2 | 0.00 | 0.13 | 0.00 | 93 | 1012.3 |
| 20260508030048 | 12 | 248 | 1.6 | 3.2 | 0.00 | 0.13 | 0.00 | 93 | 1012.5 |
| 20260508025043 | 12 | 263 | 3.2 | 6.4 | 0.00 | 0.13 | 0.00 | 93 | 1012.6 |
| 20260508024038 | 12 | 270 | 3.2 | 6.4 | 0.00 | 0.13 | 0.00 | 92 | 1012.5 |
| 20260508023033 | 12 | 270 | 3.2 | 6.4 | 0.00 | 0.13 | 0.00 | 92 | 1012.7 |
| 20260508022028 | 12 | 270 | 1.6 | 3.2 | 0.00 | 0.13 | 0.00 | 92 | 1012.5 |
| 20260508021043 | 12 | 293 | 3.2 | 6.4 | 0.00 | 0.13 | 0.00 | 92 | 1012.5 |
| 20260508020017 | 12 | 312 | 3.2 | 6.4 | 0.00 | 0.13 | 0.00 | 92 | 1012.6 |
| 20260508015132 | 12 | 315 | 3.2 | 9.7 | 0.00 | 0.13 | 0.00 | 93 | 1012.6 |
| 20260508014107 | 12 | 306 | 3.2 | 9.7 | 0.00 | 0.13 | 0.00 | 93 | 1012.7 |
| 20260508013101 | 13 | 302 | 3.2 | 6.4 | 0.00 | 0.13 | 0.00 | 93 | 1012.9 |
| 20260508012055 | 13 | 315 | 1.6 | 3.2 | 0.00 | 0.13 | 0.00 | 93 | 1012.9 |
| 20260508011050 | 13 | 0.0 | 3.2 | 0.00 | 0.13 | 0.00 | 93 | 1013.2 | |
| 20260508010045 | 13 | 315 | 0.0 | 3.2 | 0.00 | 0.13 | 0.00 | 93 | 1013.2 |
| 20260508005040 | 13 | 315 | 1.6 | 6.4 | 0.00 | 0.13 | 0.00 | 93 | 1013.3 |
| 20260508004035 | 13 | 0.0 | 3.2 | 0.00 | 0.13 | 0.00 | 93 | 1013.4 | |
| 20260508003030 | 13 | 315 | 1.6 | 3.2 | 0.00 | 0.13 | 0.00 | 93 | 1013.5 |
| 20260508002024 | 13 | 315 | 0.0 | 3.2 | 0.00 | 0.13 | 0.00 | 93 | 1013.6 |
| 20260508001019 | 13 | 315 | 1.6 | 3.2 | 0.00 | 0.13 | 0.00 | 93 | 1013.7 |
| 20260508000115 | 13 | 315 | 1.6 | 3.2 | 0.00 | 0.13 | 0.00 | 93 | 1013.7 |
| 20260507235110 | 13 | 315 | 3.2 | 6.4 | 0.00 | 0.13 | 0.00 | 93 | 1013.8 |
| 20260507234105 | 13 | 315 | 0.0 | 3.2 | 0.00 | 0.13 | 0.00 | 92 | 1013.8 |
| 20260507233058 | 13 | 315 | 1.6 | 3.2 | 0.00 | 0.13 | 0.00 | 92 | 1014.1 |
| 20260507232052 | 13 | 315 | 1.6 | 6.4 | 0.00 | 0.13 | 0.00 | 91 | 1014.1 |
| 20260507231107 | 13 | 338 | 0.0 | 3.2 | 0.00 | 0.13 | 0.00 | 91 | 1014.1 |
| 20260507230041 | 13 | 338 | 0.0 | 3.2 | 0.00 | 0.13 | 0.00 | 90 | 1014.1 |
| 20260507225036 | 13 | 338 | 0.0 | 3.2 | 0.00 | 0.13 | 0.00 | 89 | 1014.2 |
| 20260507224031 | 14 | 0 | 0.0 | 3.2 | 0.00 | 0.13 | 0.00 | 89 | 1014.2 |
| 20260507223025 | 14 | 0.0 | 3.2 | 0.00 | 0.13 | 0.00 | 88 | 1014.2 | |
| 20260507222019 | 14 | 0.0 | 3.2 | 0.00 | 0.13 | 0.00 | 87 | 1014.1 | |
| 20260507221115 | 14 | 0.0 | 0.0 | 0.00 | 0.13 | 0.00 | 88 | 1014.2 | |
| 20260507220109 | 14 | 23 | 0.0 | 3.2 | 0.00 | 0.13 | 0.00 | 88 | 1014.0 |
| 20260507215124 | 14 | 0.0 | 3.2 | 0.00 | 0.13 | 0.13 | 88 | 1013.9 | |
| 20260507214057 | 14 | 23 | 1.6 | 3.2 | 0.00 | 0.13 | 0.13 | 87 | 1013.9 |
| 20260507213112 | 14 | 23 | 3.2 | 6.4 | 0.00 | 0.13 | 0.13 | 86 | 1013.9 |
| 20260507212047 | 15 | 41 | 3.2 | 6.4 | 0.00 | 0.13 | 0.13 | 84 | 1013.8 |
| 20260507211103 | 15 | 45 | 3.2 | 6.4 | 0.00 | 0.13 | 0.13 | 84 | 1013.5 |
| 20260507210037 | 15 | 45 | 1.6 | 6.4 | 0.00 | 0.13 | 0.13 | 84 | 1013.5 |
| 20260507205032 | 15 | 63 | 6.4 | 9.7 | 0.00 | 0.13 | 0.13 | 85 | 1013.4 |
| 20260507204027 | 15 | 23 | 1.6 | 3.2 | 0.00 | 0.13 | 0.13 | 84 | 1013.5 |
| 20260507203022 | 15 | 23 | 3.2 | 6.4 | 0.00 | 0.13 | 0.13 | 84 | 1013.4 |
| 20260507202016 | 15 | 50 | 1.6 | 6.4 | 0.00 | 0.13 | 0.13 | 83 | 1013.3 |
| 20260507201112 | 16 | 48 | 4.8 | 9.7 | 0.00 | 0.13 | 0.13 | 83 | 1013.0 |
| 20260507200107 | 16 | 50 | 4.8 | 11.3 | 0.00 | 0.13 | 0.13 | 82 | 1013.1 |
| 20260507195056 | 16 | 77 | 6.4 | 12.9 | 0.00 | 0.13 | 0.13 | 81 | 1013.1 |
| 20260507194051 | 16 | 53 | 4.8 | 6.4 | 0.00 | 0.13 | 0.13 | 80 | 1012.8 |
| 20260507193041 | 16 | 90 | 3.2 | 6.4 | 0.00 | 0.13 | 0.13 | 79 | 1012.5 |
| 20260507192032 | 16 | 78 | 4.8 | 6.4 | 0.00 | 0.13 | 0.13 | 80 | 1012.3 |
| 20260507191026 | 16 | 82 | 4.8 | 9.7 | 0.00 | 0.13 | 0.13 | 79 | 1012.3 |
| 20260507190017 | 16 | 53 | 3.2 | 9.7 | 0.00 | 0.13 | 0.13 | 78 | 1012.2 |
| 20260507185106 | 17 | 68 | 4.8 | 9.7 | 0.00 | 0.13 | 0.13 | 76 | 1012.1 |
| 20260507184055 | 17 | 20 | 3.2 | 12.9 | 0.00 | 0.13 | 0.13 | 73 | 1011.9 |
| 20260507183050 | 17 | 15 | 1.6 | 6.4 | 0.00 | 0.13 | 0.13 | 73 | 1011.8 |
| 20260507182040 | 17 | 8 | 4.8 | 12.9 | 0.00 | 0.13 | 0.13 | 73 | 1011.6 |
| 20260507181031 | 17 | 12 | 3.2 | 6.4 | 0.00 | 0.13 | 0.13 | 73 | 1011.5 |
| 20260507180026 | 17 | 43 | 4.8 | 9.7 | 0.00 | 0.13 | 0.13 | 72 | 1011.5 |
| 20260507175016 | 17 | 27 | 1.6 | 6.4 | 0.00 | 0.13 | 0.13 | 71 | 1011.4 |
| 20260507174106 | 18 | 296 | 3.2 | 6.4 | 0.00 | 0.13 | 0.13 | 71 | 1011.5 |
| 20260507173056 | 18 | 301 | 8.0 | 17.7 | 0.00 | 0.13 | 0.13 | 70 | 1011.4 |
| 20260507172051 | 17 | 315 | 6.4 | 17.7 | 0.00 | 0.13 | 0.13 | 72 | 1011.6 |
| 20260507171040 | 17 | 303 | 4.8 | 12.9 | 0.00 | 0.13 | 0.13 | 79 | 1011.4 |
| 20260507170050 | 17 | 302 | 3.2 | 12.9 | 0.00 | 0.13 | 0.13 | 77 | 1011.3 |
| 20260507165019 | 17 | 294 | 3.2 | 9.7 | 0.00 | 0.13 | 0.13 | 78 | 1011.3 |
| 20260507164114 | 17 | 304 | 3.2 | 11.3 | 0.00 | 0.13 | 0.13 | 79 | 1011.1 |
| 20260507163102 | 16 | 310 | 9.7 | 17.7 | 0.00 | 0.13 | 0.13 | 79 | 1011.2 |
| 20260507162051 | 16 | 297 | 6.4 | 14.5 | 0.00 | 0.13 | 0.13 | 77 | 1011.0 |
| 20260507161041 | 16 | 310 | 8.0 | 17.7 | 0.00 | 0.13 | 0.13 | 78 | 1010.9 |
| 20260507160030 | 17 | 315 | 9.7 | 17.7 | 0.00 | 0.13 | 0.13 | 77 | 1010.8 |
| 20260507155019 | 16 | 304 | 11.3 | 22.5 | 0.00 | 0.13 | 0.13 | 80 | 1010.9 |
| 20260507154114 | 16 | 303 | 8.0 | 14.5 | 0.00 | 0.13 | 0.13 | 82 | 1010.9 |
| 20260507153103 | 16 | 310 | 8.0 | 17.7 | 0.00 | 0.13 | 0.13 | 81 | 1011.1 |
| 20260507152053 | 17 | 311 | 4.8 | 11.3 | 0.00 | 0.13 | 0.13 | 79 | 1010.9 |
| 20260507151044 | 17 | 322 | 6.4 | 11.3 | 0.00 | 0.13 | 0.13 | 77 | 1011.0 |
| 20260507150039 | 17 | 293 | 11.3 | 17.7 | 0.00 | 0.13 | 0.13 | 79 | 1011.0 |
| 20260507145027 | -17 | 0.0 | 0.0 | 0.00 | 0.13 | 0.13 | 1010.8 | ||
| 20260507144016 | -17 | 0.0 | 0.0 | 0.00 | 0.13 | 0.13 | 1010.8 | ||
| 20260507143106 | 17 | 23 | 4.8 | 6.4 | 0.00 | 0.13 | 0.13 | 85 | 1011.0 |
| 20260507142055 | 17 | 19 | 4.8 | 6.4 | 0.00 | 0.13 | 0.13 | 85 | 1010.9 |
| 20260507141050 | 17 | 310 | 4.8 | 9.7 | 0.00 | 0.13 | 0.13 | 87 | 1010.8 |
| 20260507140040 | -17 | 0.0 | 0.0 | 0.00 | 0.13 | 0.13 | 1010.9 | ||
| 20260507135031 | 17 | 180 | 4.8 | 6.4 | 0.00 | 0.13 | 0.13 | 88 | 1010.9 |
| 20260507134026 | 17 | 215 | 4.8 | 9.7 | 0.03 | 0.13 | 0.13 | 88 | 1011.0 |
| 20260507133016 | 17 | 229 | 6.4 | 11.3 | 0.05 | 0.13 | 0.13 | 88 | 1010.9 |
| 20260507132106 | 18 | 203 | 6.4 | 9.7 | 0.05 | 0.13 | 0.13 | 86 | 1010.9 |
| 20260507131056 | 18 | 248 | 3.2 | 6.4 | 0.05 | 0.13 | 0.13 | 88 | 1011.0 |
| 20260507130051 | 18 | 248 | 3.2 | 6.4 | 0.05 | 0.13 | 0.13 | 88 | 1011.1 |
| 20260507125040 | 17 | 225 | 0.0 | 3.2 | 0.05 | 0.13 | 0.13 | 88 | 1011.2 |
| 20260507124030 | 17 | 224 | 1.6 | 3.2 | 0.03 | 0.10 | 0.10 | 88 | 1011.3 |
| 20260507123019 | 17 | 303 | 4.8 | 11.3 | 0.00 | 0.05 | 0.05 | 90 | 1011.3 |
| 20260507122114 | 17 | 309 | 4.8 | 9.7 | 0.00 | 0.05 | 0.05 | 88 | 1011.6 |
| 20260507121125 | 18 | 253 | 4.8 | 12.9 | 0.00 | 0.05 | 0.05 | 87 | 1011.5 |
| 20260507120115 | 18 | 102 | 4.8 | 11.3 | 0.00 | 0.05 | 0.05 | 79 | 1011.5 |
| 20260507115050 | 18 | 113 | 6.4 | 11.3 | 0.03 | 0.05 | 0.05 | 77 | 1011.6 |
| 20260507114041 | 19 | 87 | 6.4 | 11.3 | 0.03 | 0.05 | 0.05 | 74 | 1011.5 |
| 20260507113031 | 18 | 73 | 6.4 | 14.5 | 0.05 | 0.05 | 0.05 | 76 | 1011.7 |
| 20260507112026 | 18 | 82 | 6.4 | 17.7 | 0.05 | 0.05 | 0.05 | 76 | 1011.8 |
| 20260507111037 | 18 | 69 | 4.8 | 11.3 | 0.05 | 0.05 | 0.05 | 78 | 1011.8 |
| 20260507110107 | 18 | 73 | 4.8 | 9.7 | 0.05 | 0.05 | 0.05 | 80 | 1012.0 |
| 20260507105136 | 18 | 90 | 3.2 | 3.2 | 0.03 | 0.03 | 0.03 | 80 | 1012.0 |
| 20260507104050 | 18 | 80 | 4.8 | 6.4 | 0.03 | 0.03 | 0.03 | 78 | 1012.0 |
| 20260507103041 | 18 | 75 | 8.0 | 14.5 | 0.00 | 0.00 | 0.00 | 74 | 1011.9 |
| 20260507102031 | 18 | 74 | 8.0 | 17.7 | 0.00 | 0.00 | 0.00 | 72 | 1011.8 |
| 20260507101046 | 18 | 64 | 8.0 | 17.7 | 0.00 | 0.00 | 0.00 | 71 | 1011.7 |
| 20260507100016 | 19 | 68 | 12.9 | 24.1 | 0.00 | 0.00 | 0.00 | 70 | 1011.6 |
| 20260507095126 | 19 | 50 | 9.7 | 17.7 | 0.00 | 0.00 | 0.00 | 71 | 1011.6 |
| 20260507094055 | 19 | 64 | 9.7 | 14.5 | 0.00 | 0.00 | 0.00 | 72 | 1011.8 |
| 20260507093050 | 18 | 71 | 3.2 | 9.7 | 0.00 | 0.00 | 0.00 | 77 | 1011.8 |
| 20260507092040 | 18 | 103 | 3.2 | 6.4 | 0.00 | 0.00 | 0.00 | 80 | 1012.0 |